Overview Statistics Trail Chart Weather Telemetry Raw packets
 

This is the latest recevied weather packets stored in our database for station/object 9A7DI-13. If no packets are shown the sender has not sent any weather packets the latest 10 day(s).

<< 43 44 45 46 47 48 49 >>
Time Temp. Humidity Pressure Rain* Wind** Luminosity Snow
1788000413 26.67° C 47% 1025.4 hPa - - - -
1787999812 26.67° C 45% 1025.4 hPa - - - -
1787999212 26.67° C 43% 1025.3 hPa - - - -
1787998612 27.22° C 45% 1025.2 hPa - - - -
1787998013 27.78° C 42% 1025.2 hPa - - - -
1787997412 27.78° C 42% 1025.1 hPa - - - -
1787996812 27.78° C 43% 1024.8 hPa - - - -
1787996212 28.33° C 43% 1024.7 hPa - - - -
1787995613 29.44° C 42% 1024.8 hPa - - - -
1787995013 29.44° C 41% 1024.7 hPa - - - -
1787994413 29.44° C 42% 1024.7 hPa - - - -
1787993813 28.89° C 43% 1024.6 hPa - - - -
1787993213 28.33° C 42% 1024.6 hPa - - - -
1787992013 28.33° C 49% 1024.9 hPa - - - -
1787991413 28.89° C 47% 1024.6 hPa - - - -
1787990815 28.33° C 49% 1024.6 hPa - - - -
1787990213 27.78° C 50% 1024.6 hPa - - - -
1787989613 27.22° C 52% 1024.5 hPa - - - -
1787989013 26.67° C 53% 1024.6 hPa - - - -
1787988413 27.22° C 51% 1024.3 hPa - - - -
1787987813 27.22° C 52% 1024.4 hPa - - - -
1787987213 27.22° C 52% 1024.2 hPa - - - -
1787986613 27.22° C 51% 1024.4 hPa - - - -
1787986013 26.67° C 53% 1024.6 hPa - - - -
1787985413 26.67° C 54% 1024.9 hPa - - - -

* Rain since midnight (hover to see other rain measurements)
** Current wind speed in m/s (hover to see current wind gust speed)